Regional Weather Roundup
Issued by NWS

Home | Current Version | Previous Version | Text Only | Print | Product List | Glossary On
Versions: 1 2 3 4 5 6 7 8 9 10 11 12 13 14 15 16 17 18 19 20 21 22 23 24 25 26 27 28 29 30 31 32 33 34 35 36 37 38 39 40 41 42 43 44 45 46 47 48 49 50
000
ASCA42 TJSJ 061110
RWRPR
PUERTO RICO/U.S. VIRGIN ISLANDS HOURLY WEATHER ROUNDUP
NATIONAL WEATHER SERVICE SAN JUAN PR
700 AM AST WED MAY 06 2015

PRZ001-004-061200-
PUERTO RICO

CITY           SKY/WX    TMP DP  RH WIND       PRES   REMARKS
SAN JUAN LMM   MOSUNNY   79  72  78 E6        30.08R
AGUADILLA      SUNNY     72  66  83 CALM      30.09
CEIBA          MOSUNNY   81  70  69 E10       30.10R
$$

PRZ006-007-061200-
U.S. VIRGIN ISLANDS

CITY           SKY/WX    TMP DP  RH WIND       PRES   REMARKS
CHARLOTTE AMA  MOSUNNY   81  70  69 E12       30.08R
CHRISTIANSTED  MOSUNNY   81  70  69 E16       30.08R
$$

HOURLY WEATHER ROUNDUP FOR THE NEWS MEDIA

CITY           SKY/WX    TMP DP  RH WIND       PRES   REMARKS
ORLANDO        CLOUDY    70  66  87 NW5       30.05R
NEW YORK       LGT RAIN  65  43  44 N7        30.24R
NEWARK         LGT RAIN  67  40  37 N12       30.25R
CHICAGO        FOG       48  48 100 CALM      30.17S VSB 1/4
HARTFORD       CLOUDY    57  50  77 N5        30.26R
BOSTON         CLOUDY    59  39  47 N7        30.29R
DALLAS         CLOUDY    69  66  90 SE15G24   29.94S
PHILADELPHIA   MOSUNNY   68  56  65 NE7       30.22R
LOS ANGELES    MOCLDY    59  51  75 CALM      29.91F
WASHINGTON DC  PTCLDY    58  58 100 CALM      30.20R FOG


USA.gov is the U.S. government's official web portal to all federal, state and local government web resources and services.